Location: Newark
(46.7000°N, 60.6000°W)
Time: 20:26:59
(UTC+00:00)

Envisat - Pass Details

Date: 30 September 2020
Orbit: 764 x 766 km, 98.1° (Epoch: 20 October)

Event Time Altitude Azimuth Distance (km) Brightness Sun altitude
Rises 08:43:24 0° 31° (NNE) 3,241 6.9 -14.0°
Reaches altitude 10° 08:46:52 10° 55° (NE) 2,309 6.6 -13.4°
Maximum altitude 08:49:33 14° 88° (E) 2,020 6.5 -12.9°
Drops below altitude 10° 08:52:14 10° 120° (ESE) 2,299 6.3 -12.5°
Sets 08:55:39 0° 144° (SE) 3,218 6.6 -11.9°
